Location: Heidgraben
(53.7081°N, 9.6576°E)
Time: 03:52:08
(UTC+00:00)

Cosmos 1151 Rocket - Pass Details

Date: 05 July 2020
Orbit: 591 x 617 km, 82.5° (Epoch: 06 August)

Event Time Altitude Azimuth Distance (km) Brightness Sun altitude
Rises 23:31:06 0° 342° (NNW) 2,885 8.0 -13.6°
Reaches altitude 10° 23:33:28 10° 334° (NNW) 1,971 6.7 -13.6°
Maximum altitude 23:37:24 34° 269° (W) 1,004 4.1 -13.6°
Enters shadow 23:40:03 18° 214° (SW) 1,513 4.5 -13.6°
